| time (UTC) | temp F | wind direction | speed MPH | gust MPH | rain 1hr in | rain 24hr in | rain mn in | humidity % | barometer mb |
| 20260902094538 | 74 | 227 | 3.0 | 5.0 | 0.00 | 0.01 | 0.01 | 92 | 1012.1 |
| 20260902093037 | 74 | 228 | 1.0 | 3.0 | 0.00 | 0.01 | 0.01 | 92 | 1011.9 |
| 20260902091537 | 74 | 228 | 0.0 | 1.0 | 0.01 | 0.01 | 0.01 | 91 | 1011.9 |
| 20260902090040 | 74 | 228 | 0.0 | 2.0 | 0.01 | 0.01 | 0.01 | 91 | 1011.8 |
| 20260902084540 | 74 | 228 | 0.0 | 2.0 | 0.01 | 0.01 | 0.01 | 91 | 1011.6 |
| 20260902083033 | 75 | 227 | 0.0 | 4.0 | 0.01 | 0.01 | 0.01 | 91 | 1011.5 |
| 20260902081532 | 74 | 228 | 2.0 | 5.0 | 0.00 | 0.00 | 0.00 | 91 | 1011.9 |
| 20260902080031 | 75 | 228 | 0.0 | 1.0 | 0.00 | 0.00 | 0.00 | 91 | 1011.5 |
| 20260902074530 | 75 | 227 | 0.0 | 3.0 | 0.00 | 0.00 | 0.00 | 91 | 1011.7 |
| 20260902073129 | 75 | 227 | 2.0 | 4.0 | 0.00 | 0.00 | 0.00 | 91 | 1011.7 |
| 20260902071528 | 75 | 227 | 2.0 | 4.0 | 0.00 | 0.00 | 0.00 | 91 | 1011.7 |
| 20260902070028 | 75 | 228 | 3.0 | 4.0 | 0.00 | 0.00 | 0.00 | 91 | 1011.6 |
| 20260902064527 | 75 | 228 | 1.0 | 3.0 | 0.00 | 0.00 | 0.00 | 91 | 1011.5 |
| 20260902063043 | 75 | 228 | 1.0 | 4.0 | 0.00 | 0.00 | 0.00 | 91 | 1011.7 |
| 20260902061534 | 75 | 228 | 1.0 | 4.0 | 0.00 | 0.00 | 0.00 | 91 | 1011.9 |
| 20260902060035 | 75 | 228 | 2.0 | 4.0 | 0.00 | 0.00 | 0.00 | 91 | 1012.0 |
| 20260902054523 | 75 | 228 | 2.0 | 6.0 | 0.00 | 0.00 | 0.00 | 91 | 1012.1 |
| 20260902053019 | 75 | 229 | 3.0 | 5.0 | 0.00 | 0.00 | 0.00 | 91 | 1012.1 |
| 20260902051518 | 75 | 219 | 2.0 | 5.0 | 0.00 | 0.00 | 0.00 | 90 | 1011.9 |
| 20260902050021 | 76 | 214 | 1.0 | 4.0 | 0.00 | 0.00 | 0.00 | 90 | 1011.9 |
| 20260902044524 | 76 | 225 | 2.0 | 5.0 | 0.00 | 0.00 | 0.00 | 89 | 1012.0 |
| 20260902043013 | 76 | 227 | 3.0 | 8.0 | 0.00 | 0.00 | 0.00 | 89 | 1012.0 |
| 20260902041512 | 76 | 217 | 3.0 | 7.0 | 0.00 | 0.00 | 0.00 | 89 | 1011.8 |
| 20260902040009 | 77 | 223 | 4.0 | 8.0 | 0.00 | 0.00 | 0.00 | 89 | 1011.9 |
| 20260902034508 | 77 | 228 | 3.0 | 7.0 | 0.00 | 0.00 | 0.00 | 88 | 1011.8 |
| 20260902033009 | 78 | 229 | 4.0 | 9.0 | 0.00 | 0.00 | 0.00 | 88 | 1011.9 |
| 20260902031523 | 78 | 240 | 6.0 | 12.0 | 0.00 | 0.00 | 0.00 | 89 | 1012.0 |
| 20260902030006 | 77 | 232 | 5.0 | 9.0 | 0.00 | 0.00 | 0.00 | 90 | 1011.9 |
| 20260902024504 | 77 | 219 | 2.0 | 5.0 | 0.00 | 0.00 | 0.00 | 90 | 1011.7 |
| 20260902023013 | 77 | 222 | 2.0 | 6.0 | 0.00 | 0.00 | 0.00 | 89 | 1011.8 |
| 20260902021506 | 78 | 223 | 1.0 | 4.0 | 0.00 | 0.00 | 0.00 | 89 | 1011.7 |
| 20260902020002 | 78 | 224 | 3.0 | 4.0 | 0.00 | 0.00 | 0.00 | 88 | 1011.7 |
| 20260902014502 | 79 | 224 | 1.0 | 3.0 | 0.00 | 0.00 | 0.00 | 87 | 1011.7 |
| 20260902013111 | 79 | 223 | 1.0 | 5.0 | 0.00 | 0.00 | 0.00 | 86 | 1011.8 |
| 20260902011559 | 80 | 224 | 1.0 | 4.0 | 0.00 | 0.00 | 0.00 | 85 | 1011.6 |
| 20260902004557 | 81 | 224 | 2.0 | 5.0 | 0.00 | 0.00 | 0.00 | 82 | 1011.4 |
| 20260902003057 | 82 | 217 | 3.0 | 8.0 | 0.00 | 0.00 | 0.00 | 81 | 1011.3 |
| 20260902001558 | 83 | 223 | 2.0 | 6.0 | 0.00 | 0.00 | 0.00 | 80 | 1011.2 |
| 20260902000056 | 84 | 225 | 3.0 | 7.0 | 0.00 | 0.00 | 0.00 | 78 | 1011.2 |
| 20260901234603 | 85 | 232 | 3.0 | 9.0 | 0.00 | 0.00 | 0.00 | 76 | 1011.3 |
| 20260901233054 | 85 | 235 | 5.0 | 7.0 | 0.00 | 0.00 | 0.00 | 75 | 1011.4 |
| 20260901231558 | 86 | 235 | 5.0 | 8.0 | 0.00 | 0.00 | 0.00 | 73 | 1011.4 |
| 20260901230106 | 87 | 236 | 4.0 | 8.0 | 0.00 | 0.00 | 0.00 | 72 | 1011.5 |
| 20260901224554 | 88 | 261 | 5.0 | 10.0 | 0.00 | 0.00 | 0.00 | 70 | 1011.4 |
| 20260901223052 | 88 | 232 | 4.0 | 8.0 | 0.00 | 0.00 | 0.00 | 69 | 1011.4 |
| 20260901221606 | 88 | 267 | 4.0 | 10.0 | 0.00 | 0.00 | 0.00 | 69 | 1011.3 |
| 20260901220050 | 89 | 238 | 6.0 | 10.0 | 0.00 | 0.00 | 0.00 | 68 | 1011.3 |
| 20260901214549 | 89 | 238 | 5.0 | 12.0 | 0.00 | 0.00 | 0.00 | 69 | 1011.2 |
| 20260901213053 | 89 | 238 | 5.0 | 9.0 | 0.00 | 0.00 | 0.00 | 68 | 1011.1 |
| 20260901211548 | 89 | 214 | 7.0 | 11.0 | 0.00 | 0.00 | 0.00 | 67 | 1011.2 |
| 20260901210045 | 89 | 242 | 7.0 | 13.0 | 0.00 | 0.00 | 0.00 | 67 | 1011.3 |
| 20260901204541 | 89 | 234 | 6.0 | 11.0 | 0.00 | 0.00 | 0.00 | 68 | 1011.4 |
| 20260901203045 | 89 | 232 | 4.0 | 7.0 | 0.00 | 0.00 | 0.00 | 67 | 1011.4 |
| 20260901201546 | 89 | 215 | 5.0 | 11.0 | 0.00 | 0.00 | 0.00 | 67 | 1011.6 |
| 20260901200038 | 88 | 248 | 4.0 | 11.0 | 0.00 | 0.00 | 0.00 | 69 | 1011.7 |
| 20260901194536 | 90 | 244 | 4.0 | 10.0 | 0.00 | 0.00 | 0.00 | 68 | 1011.8 |
| 20260901193033 | 89 | 273 | 2.0 | 14.0 | 0.00 | 0.00 | 0.00 | 71 | 1011.8 |
| 20260901191538 | 89 | 246 | 1.0 | 11.0 | 0.00 | 0.00 | 0.00 | 70 | 1012.0 |
| 20260901190033 | 89 | 229 | 4.0 | 11.0 | 0.00 | 0.00 | 0.00 | 69 | 1012.0 |
| 20260901184528 | 88 | 302 | 1.0 | 10.0 | 0.00 | 0.00 | 0.00 | 71 | 1012.1 |
| 20260901183042 | 87 | 234 | 1.0 | 7.0 | 0.00 | 0.00 | 0.00 | 74 | 1012.0 |
| 20260901181523 | 87 | 249 | 3.0 | 9.0 | 0.00 | 0.00 | 0.00 | 72 | 1012.1 |
| 20260901180023 | 87 | 242 | 3.0 | 10.0 | 0.00 | 0.00 | 0.00 | 74 | 1012.2 |
| 20260901174521 | 86 | 260 | 2.0 | 9.0 | 0.00 | 0.00 | 0.00 | 75 | 1012.1 |
| 20260901173022 | 86 | 241 | 4.0 | 7.0 | 0.00 | 0.00 | 0.00 | 74 | 1012.2 |
| 20260901171519 | 86 | 223 | 0.0 | 7.0 | 0.00 | 0.00 | 0.00 | 73 | 1012.3 |
| 20260901170029 | 86 | 232 | 2.0 | 7.0 | 0.00 | 0.00 | 0.00 | 76 | 1012.6 |
| 20260901164516 | 85 | 230 | 1.0 | 3.0 | 0.00 | 0.00 | 0.00 | 76 | 1012.7 |
| 20260901163011 | 84 | 230 | 1.0 | 5.0 | 0.00 | 0.00 | 0.00 | 79 | 1012.7 |
| 20260901161509 | 84 | 242 | 0.0 | 8.0 | 0.00 | 0.00 | 0.00 | 81 | 1012.8 |
| 20260901160011 | 83 | 221 | 2.0 | 8.0 | 0.00 | 0.00 | 0.00 | 80 | 1013.0 |
| 20260901154504 | 82 | 248 | 3.0 | 7.0 | 0.00 | 0.03 | 0.00 | 81 | 1012.9 |
| 20260901153001 | 81 | 251 | 0.0 | 5.0 | 0.00 | 0.03 | 0.00 | 83 | 1013.2 |
| 20260901151601 | 80 | 251 | 1.0 | 4.0 | 0.00 | 0.03 | 0.00 | 84 | 1013.3 |
| 20260901150056 | 80 | 251 | 2.0 | 4.0 | 0.00 | 0.03 | 0.00 | 84 | 1013.4 |
| 20260901144553 | 79 | 242 | 0.0 | 4.0 | 0.00 | 0.09 | 0.00 | 86 | 1013.4 |
| 20260901143054 | 79 | 242 | 0.0 | 4.0 | 0.00 | 0.09 | 0.00 | 87 | 1013.3 |
| 20260901141547 | 78 | 235 | 1.0 | 4.0 | 0.00 | 0.09 | 0.00 | 88 | 1013.1 |
| 20260901140044 | 77 | 237 | 2.0 | 6.0 | 0.00 | 0.09 | 0.00 | 89 | 1013.1 |
| 20260901134541 | 76 | 238 | 2.0 | 7.0 | 0.00 | 0.09 | 0.00 | 91 | 1013.1 |
| 20260901133045 | 75 | 237 | 3.0 | 7.0 | 0.00 | 0.09 | 0.00 | 92 | 1012.9 |
| 20260901131540 | 74 | 237 | 3.0 | 7.0 | 0.00 | 0.09 | 0.00 | 93 | 1013.2 |
| 20260901130032 | 73 | 244 | 3.0 | 8.0 | 0.00 | 0.09 | 0.00 | 94 | 1013.1 |
| 20260901124527 | 72 | 230 | 2.0 | 4.0 | 0.00 | 0.09 | 0.00 | 94 | 1013.1 |
| 20260901123032 | 72 | 230 | 1.0 | 2.0 | 0.00 | 0.09 | 0.00 | 94 | 1013.0 |
| 20260901121524 | 71 | 230 | 1.0 | 2.0 | 0.00 | 0.09 | 0.00 | 94 | 1012.9 |
| 20260901120022 | 70 | 230 | 0.0 | 1.0 | 0.00 | 0.09 | 0.00 | 94 | 1012.8 |
| 20260901114522 | 70 | 230 | 1.0 | 3.0 | 0.00 | 0.09 | 0.00 | 94 | 1012.8 |
| 20260901113019 | 69 | 230 | 1.0 | 3.0 | 0.00 | 0.09 | 0.00 | 93 | 1012.5 |
| 20260901111517 | 69 | 230 | 0.0 | 2.0 | 0.00 | 0.09 | 0.00 | 93 | 1012.3 |
| 20260901110017 | 70 | 230 | 1.0 | 3.0 | 0.00 | 0.09 | 0.00 | 93 | 1012.3 |
| 20260901104515 | 70 | 230 | 2.0 | 3.0 | 0.00 | 0.09 | 0.00 | 93 | 1012.1 |
| 20260901103014 | 70 | 230 | 1.0 | 4.0 | 0.00 | 0.09 | 0.00 | 93 | 1012.1 |
| 20260901101515 | 71 | 234 | 3.0 | 5.0 | 0.00 | 0.09 | 0.00 | 93 | 1012.1 |
| 20260901100014 | 71 | 237 | 3.0 | 7.0 | 0.00 | 0.09 | 0.00 | 93 | 1012.1 |